Preview of NWS' New Version of Forecast
This preview is not operational and should not be used for support decisions.
Latest weather observations around

Coffeyville, Coffeyville Municipal Airport (KCFV)

Using English Units (Switch to International System of Units)
Date/ Time (CST) Wind (mph) Vis. (mi) Weather Sky Cond. Temp (°F) Rel. Humidity Wind Chill (°F) Heat Index (°F) Pressure Precip. (in)
Air Dwpt 6 hour Altimeter (inHg) Sea level (inHg) 1 hr 3 hr 6 hr
Max Min
Jan 16 11:52 S 7 7 Cloudy OVC032 47 41     80% 44   30.14 30.15      
Jan 16 10:52 SSE 8 6 Haze OVC030 45 40     82% 41   30.16 30.17      
Jan 16 09:52 SE 7 6 Fog/Mist OVC031 43 39     86% 39   30.16 30.17      
Jan 16 08:52 SE 5 5 Fog/Mist OVC030 41 38     89% 38   30.17 30.18      
Jan 16 07:52 SE 3 6 Fog/Mist OVC030 41 38     89% 39   30.17 30.19      
Jan 16 06:52 S 7 6 Fog/Mist OVC028 41 38     89% 36   30.18 30.19      
Jan 16 05:52 S 6 7 Cloudy OVC027 41 38     89% 37   30.16 30.17      
Jan 16 04:52 S 6 6 Fog/Mist OVC026 41 38     89% 37   30.16 30.17      
Jan 16 03:52 S 7 6 Fog/Mist OVC026 40 38     93% 35   30.17 30.17      
Jan 16 02:52 S 5 7 Cloudy OVC025 40 38     93% 37   30.18 30.19      
Jan 16 01:52 S 8 7 Cloudy OVC025 39 37     93% 33   30.18 30.19      
Jan 16 00:52 S 8 6 Fog/Mist OVC027 38 35     89% 32   30.18 30.19      
Jan 16 00:21 S 6 7 Mostly Cloudy BKN028 37 35     92% 32   30.19        
Jan 15 23:52 S 8 7 Clear CLR 37 35     92% 31   30.2 30.22      
Jan 15 22:52 SSW 9 7 Clear CLR 38 35     89% 31   30.19 30.21      
Jan 15 21:52 SSW 8 7 Clear CLR 38 35     89% 32   30.19 30.2      
Jan 15 20:52 S 6 8 Clear CLR 39 36     89% 35   30.17 30.19      
Jan 15 19:52 S 6 9 Clear CLR 40 36     86% 36   30.17 30.18      
Jan 15 18:52 S 6 9 Clear CLR 41 37     86% 37   30.16 30.18      
Jan 15 17:52 S 8 10 Clear CLR 44 38     79% 40   30.15 30.16      
Jan 15 16:52 S 8 10 Clear CLR 48 40     73% 44   30.15 30.16      
Jan 15 15:52 SSW 8 9 Clear CLR 50 40     68%     30.15 30.17      
Jan 15 14:52 SSW 10 9 Clear CLR 49 40     71% 45   30.16 30.18      
Jan 15 13:52 S 10 8 Clear CLR 46 39     76% 41   30.17 30.18      
Jan 15 12:52 S 13 7 Mostly Clear FEW014 43 37     79% 36   30.21 30.22      
Jan 15 11:52 S 10 6 Fog/Mist CLR 39 35     86% 32   30.25 30.27      
Jan 15 10:59 S 9 5 Fog/Mist SCT007 36 33     89% 29   30.29        
Jan 15 10:52 S 10 5 Fog/Mist BKN007 36 33     89% 29   30.29 30.31      
Jan 15 09:52 S 8 4 Clear   32 31     96% 25   30.29 30.31      
Jan 15 08:52 S 7 4 Fog/Mist OVC005 30 29     96% 23   30.29 30.31      
Jan 15 07:52 S 8 3 Fog/Mist OVC006 29 27     92% 21   30.28 30.3      
Jan 15 06:52 S 9 4 Fog/Mist BKN006 29 27     92% 20   30.27 30.29      
Jan 15 06:43 S 9 4 Fog/Mist FEW006 29 27     92% 20   30.27        
Jan 15 05:52 S 10 4 Fog/Mist CLR 29 28     96% 20   30.28 30.29      
Jan 15 04:52 S 9 4 Fog/Mist CLR 29 28     96% 20   30.29 30.31      
Jan 15 03:52 SSE 7 5 Fog/Mist CLR 29 28     96% 22   30.31 30.33      
Jan 15 02:52 SSE 8 6 Fog/Mist CLR 30 28     92% 22   30.31 30.33      
Jan 15 01:52 SE 5 5 Fog/Mist CLR 30 28     92% 25   30.32 30.34      
Jan 15 00:52 SSE 6 5 Fog/Mist CLR 31 29     92% 25   30.33 30.35      
Jan 14 23:52 SSE 5 5 Fog/Mist FEW010 31 29     92% 26   30.35 30.37      
Jan 14 23:04 SSE 5 7 Partly Cloudy SCT013 32 30     92% 27   30.36        
Jan 14 22:52 SSE 5 7 Mostly Cloudy BKN013 32 30     92% 27   30.36 30.38      
Jan 14 21:52 S 6 7 Cloudy OVC010 33 30     88% 28   30.34 30.36      
Jan 14 20:52 S 6 8 Cloudy OVC011 33 30     88% 28   30.35 30.37      
Jan 14 19:52 SSW 6 9 Cloudy OVC012 34 30     85% 29   30.35 30.37      
Jan 14 18:52 S 6 9 Cloudy OVC013 34 30     85% 29   30.36 30.38      
Jan 14 17:52 SSW 3 9 Cloudy OVC013 34 30     85% 31   30.35 30.37      
Jan 14 16:52 Calm 8 Cloudy OVC012 34 30     85%     30.35 30.37      
Jan 14 15:52 SW 3 8 Cloudy OVC012 34 30     85% 31   30.36 30.38      
Jan 14 14:52 WSW 6 8 Cloudy OVC010 33 29     85% 28   30.38 30.4      
Jan 14 14:22 SW 7 8 Cloudy OVC010 33 29     85% 27   30.38        
Jan 14 13:52 WSW 7 7 Cloudy OVC009 32 29     88% 26   30.39 30.41      
Jan 14 13:25 SW 5 7 Cloudy OVC008 32 29     88% 27   30.39        
Jan 14 13:16 WSW 6 7 Cloudy OVC010 32 28     85% 26   30.4        
Jan 14 12:52 SW 6 6 Fog/Mist OVC008 32 29     88% 26   30.41 30.43      
Jan 14 11:52 WSW 5 5 Fog/Mist OVC006 31 29     92% 26   30.45 30.47      
Jan 14 10:52 W 6 6 Fog/Mist OVC006 30 28     92% 24   30.48 30.5      
Jan 14 09:52 WSW 8 5 Fog/Mist OVC006 30 28     92% 22   30.47 30.5      
Jan 14 08:52 W 6 5 Fog/Mist OVC006 30 27     88% 24   30.46 30.48      
Jan 14 07:52 SW 3 5 Fog/Mist OVC006 30 28     92% 27   30.46 30.49      
Jan 14 06:52 W 8 6 Fog/Mist OVC006 29 27     92% 21   30.46 30.48      
Jan 14 05:52 SW 3 5 Fog/Mist OVC006 30 28     92% 27   30.45 30.47      
Jan 14 04:52 NNW 3 6 Fog/Mist OVC006 29 27     92% 25   30.46 30.48      
Jan 14 03:52 Calm 6 Fog/Mist OVC007 30 27     88%     30.47 30.49      
Jan 14 02:52 WNW 6 6 Fog/Mist OVC007 30 28     92% 24   30.47 30.5      
Jan 14 01:52 NNW 5 7 Cloudy OVC007 30 27     88% 25   30.46 30.48      
Jan 14 00:52 Calm 7 Cloudy OVC008 31 28     89%     30.46 30.48      
Jan 13 23:52 5 6 Fog/Mist OVC008 31 28     89% 26   30.48 30.5      
Jan 13 22:52 NW 3 7 Cloudy OVC008 31 28     89% 28   30.48 30.5      
Jan 13 21:52 NNW 6 7 Cloudy OVC008 31 28     89% 25   30.48 30.5      
Jan 13 20:52 NNE 7 7 Cloudy OVC009 31 28     89% 24   30.47 30.49      
Jan 13 20:13 NNW 8 7 Cloudy OVC009 31 28     89% 23   30.47        
Jan 13 19:52 N 9 7 Cloudy OVC010 31 28     89% 23   30.47 30.49      
Jan 13 18:52 N 8 8 Cloudy OVC010 32 28     85% 25   30.47 30.49      
Jan 13 17:52 NNW 7 8 Cloudy OVC012 32 28     85% 26   30.45 30.47      
Jan 13 16:52 N 9 8 Cloudy OVC013 33 28     82% 25   30.43 30.45      
Jan 13 16:40 N 7 8 Cloudy OVC014 33 29     85% 27   30.43        
Jan 13 15:52 N 10 10 Cloudy OVC016 33 28     82% 25   30.43 30.45      
Jan 13 14:52 N 8 8 Cloudy OVC015 33 29     85% 26   30.43 30.45      
Jan 13 14:09 N 8 7 Clear   33 29     85% 26   30.42        
Jan 13 13:52 NNW 8 6 Clear   33 29     85% 26   30.42 30.45      
Jan 13 12:52 N 10 5 Fog/Mist OVC010 33 29     85% 25   30.43 30.45      
May 15 13:52 SW 9 10 Mostly Clear FEW033 81 67     62%   83 29.96 29.94      
May 15 12:52 SW 9 10 Clear CLR 79 66     65%   80 29.98 29.96      
May 15 03:24 E 10 10 Light Rain OVC110 65 62     90%     29.96   0    
May 15 02:14 ENE 17 7 Thunderstorms and Rain BKN095 OVC110 65 63     93%     29.96   0    
May 14 23:52 N 22   Thunderstorms and Heavy Rain   64 62     93%     30.01 29.99 1    
May 14 21:52 ESE 10 10 Partly Cloudy SCT055 81 66     61%   83 29.83        
May 14 10:52 SSW 16 10 Clear CLR 85 69     59%   89 29.92 29.89      
Notice The following observation data may not be complete
May 14 06:52   9 Clear CLR          %              
May 14 03:52 SSE 7 10 Clear CLR 70 65     84%     29.92 29.9      
May 13 10:52 S 17 10 Clear CLR 82 69     65%   85 29.99 29.96      
May 11 21:52 S 15 10 Clear CLR 77 63     62%   77 29.81 29.79      
Jun 12 05:52 SSE 9 10 Clear CLR 69 65     87%     29.9 29.87      
Jun 11 21:52 SSE 9 10 Clear CLR 77 67     71%   78 29.86 29.84      
Jun 08 22:52 ESE 3 10 Clear CLR 63 57     81%     29.93 29.92      
Jun 06 09:52 NE 8 10 Clear CLR 78 66     67%   79 29.95 29.93      
Notice The following observation data may not be complete
Jun 05 20:52 Calm 10 Clear CLR   70      %     29.83 29.81